sat.trackr.live / text

‹ back to catalog

KUIPER-00290

NORAD 68592 · 2026-072V

PAYLOAD ACTIVE UNKNOWN

§ Identity

Operator
Country
US
Launch date
2026-04-04
Launch site
AFETR
Launch vehicle
Mass (kg)
RCS (m²)

External: N2YO · Heavens-Above · Gunter

§ Orbital elements

Epoch: 2026-05-25T02:36:23.943744Z

Period
93.73 min
Inclination
51.8655°
Eccentricity
0.0011217
Mean motion
15.36253379 rev/d
Perigee alt
449.5 km
Apogee alt
464.9 km
Semi-major
6,835.3 km
B*
1.0951e-3
RAAN
288.9477°
Arg perigee
304.7626°
Mean anomaly
55.2304°
Rev number
782

§ Raw data

KUIPER-002901 68592U 26072V   26145.10861046  .00039188  00000+0  10951-2 0  99972 68592  51.8655 288.9477 0011217 304.7626  55.2304 15.36253379  7827

JSON: /api/v1/satellites/68592 · /tle

For live sub-satellite position, see the globe view (requires WebGL).

§ Visibility from observer

Set your observer location to see the next 7 days of passes ≥ 10°. The values pass through the URL so the page stays shareable.

No JS? Fill the form by hand. The geolocation button needs JavaScript.